Regional Weather Roundup
Issued by NWS

Home | Current Version | Previous Version | Text Only | Print | Product List | Glossary Off
Versions: 1 2 3 4 5 6 7 8 9 10 11 12 13 14 15 16 17 18 19 20 21 22 23 24 25 26 27 28

000
ASUS45 KBOU 251810
RWRCO

WEATHER ROUNDUP FOR COLORADO
NATIONAL WEATHER SERVICE DENVER/BOULDER CO
1200 PM MDT SUN SEP 25 2016

NOTE: "FAIR" INDICATES FEW OR NO CLOUDS BELOW 12000 FEET WITH NO
SIGNIFICANT WEATHER AND/OR OBSTRUCTIONS TO VISIBILITY.

COZ001>005-013-030-031-251900-
...NORTHWEST COLORADO...

CITY           SKY/WX    TMP DP  RH WIND       PRES   REMARKS
CRAIG          FAIR      52  38  58 CALM      30.52F
HAYDEN         FAIR      50  34  53 CALM      30.52F
MEEKER         FAIR      55  37  50 CALM      30.51F
MOUNT WERNER   NOT AVBL
STEAMBOAT SPGS FAIR      50  34  54 CALM      30.52F
WALDEN           N/A     50  23  34 W7        30.55F
$$

COZ006>008-011-251900-
...WEST CENTRAL VALLEYS...

CITY           SKY/WX    TMP DP  RH WIND       PRES   REMARKS
GRAND JUNCTION FAIR      60  39  45 VRB6      30.46F
MONTROSE       FAIR      57  38  48 CALM      30.49F
EAGLE          SUNNY     55  30  38 CALM      30.53F
RIFLE          FAIR      57  41  55 CALM      30.48F
DELTA          FAIR      60  40  47 CALM      30.47F
NUCLA          FAIR      59  34  38 NW3       30.48F
$$

COZ017>023-064>068-251900-
...SOUTHWEST COLORADO...

CITY           SKY/WX    TMP DP  RH WIND       PRES   REMARKS
DURANGO        FAIR      63  27  25 CALM      30.42S
CORTEZ         FAIR      64  37  36 S5        30.40F
PAGOSA SPRINGS FAIR      62  25  24 CALM      30.46S
TELLURIDE      FAIR      51  32  49 W8        30.55S
WOLF CREEK PAS FAIR      41  27  56 SW7       30.67F
$$

COZ009-010-012-014-032>034-037-058>063-251900-
...CENTRAL COLORADO...

CITY           SKY/WX    TMP DP  RH WIND       PRES   REMARKS
ASPEN          FAIR      54  33  45 N10       30.53S
BUENA VISTA    FAIR      54  24  30 CALM      30.51F
COPPER MTN     FAIR      41  27  56 W7        30.67S
BERTHOUD PASS  FAIR      27  12  54 NW14G23   30.66F WCI  15
COTTONWOOD PAS FAIR      52  27  37 NE5       30.58S
GUNNISON       FAIR      52  31  44 CALM      30.52F
KREMMLING      FAIR      54  28  37 NW5       30.54F
LEADVILLE      FAIR      46  20  35 MISG      30.56F
MONARCH PASS   FAIR      36  28  75 SW12      30.76S
SALIDA         FAIR      58  28  32 E6        30.57F
SUNLIGHT       FAIR      37  36  93 CALM      30.67S
WILKERSON PASS FAIR      43  23  45 W5        30.67R
$$

COZ069>075-251900-
...SAN LUIS VALLEY/SANGRE DE CRISTO MOUNTAINS...

CITY           SKY/WX    TMP DP  RH WIND       PRES   REMARKS
ALAMOSA        FAIR      57  29  34 MISG      30.48F
LA VETA PASS   FAIR      45  30  57 MISG      30.59F
SAGUACHE       NOT AVBL
$$

COZ035-036-038>040-251900-
...NORTHERN COLORADO FRONT RANGE...

CITY           SKY/WX    TMP DP  RH WIND       PRES   REMARKS
DENVER INTL AP FAIR      61  29  29 VRB5      30.46F
DMNS CITY PARK NOT AVBL
AURORA         MOSUNNY   60  30  32 NE6       30.46F
FRONT RANGE AP MOSUNNY   63  30  29 NE8       30.46F
ERIE MUNI ARPT FAIR      63  30  29 S7        30.44F
BOULDER MUN AP FAIR      63  32  31 SE8       30.44F
CENTENNIAL     FAIR      58  32  37 VRB3      30.46F
BROOMFIELD     MOSUNNY   63  32  31 E9        30.46F
FORT COLLINS   FAIR      61  34  36 S7        30.43F
LONGMONT       FAIR      65  34  31 SE9       30.45F
$$

COZ041-046-047-076>085-087-088-251900-
...PIKES PEAK/PALMER DIVIDE AND SOUTHERN FOOTHILLS...

CITY           SKY/WX    TMP DP  RH WIND       PRES   REMARKS
COLO. SPRINGS  FAIR      59  29  31 VRB3      30.49F
A. F. ACADEMY  FAIR      57  28  33 VRB3      30.48F
SCHRIEVER AFB  NOT AVBL
ELLICOTT       NOT AVBL
FALCON         FAIR      55  28  34 N5        30.51F
FORT CARSON    FAIR      60  30  31 VRB6      30.46F
LIMON          FAIR      62  30  29 N13G24    30.46F
MONUMENT HILL  FAIR      52  30  43 NE9       30.52F
TRINIDAD       FAIR      61  30  31 E9        30.47F
$$

COZ042>045-048>051-090-091-251900-
...NORTHEAST COLORADO...

CITY           SKY/WX    TMP DP  RH WIND       PRES   REMARKS
GREELEY ARPT   FAIR      63  32  31 N8        30.44F
AKRON          FAIR      62  32  32 N16G26    30.42F
BURLINGTON     FAIR      66  32  28 N17G30    30.40F
WRAY           NOT AVBL
STERLING       FAIR      64  34  32 N20G26    30.39F
HOLYOKE        FAIR      68  36  30 N22G31    30.38F
FORT MORGAN    FAIR      66  26  22 W13G18    30.43F
$$

COZ086-089-092>099-251900-
...SOUTHEAST COLORADO...

CITY           SKY/WX    TMP DP  RH WIND       PRES   REMARKS
PUEBLO         FAIR      64  32  30 S7        30.44F
LA JUNTA       FAIR      67  32  27 NE6G20    30.42F
LAMAR          FAIR      69  33  26 N13G24    30.38F
SPRINGFIELD    NOT AVBL
$$




USA.gov is the U.S. government's official web portal to all federal, state and local government web resources and services.